User: anonymous   Login
Location: Vancouver
(49.2500°N, 123.1330°W)
Time: 03:38:45
(UTC-07:00)
Language:

Transit 2A Rocket - Orbit

View from above orbital plane
View from above orbital plane
View from above satellite
View from above satellite

Ground track
Ground track

The orbit data is extracted from the following two-line orbital elements,

1 00047U 60007C   15088.73421154  .00000943  00000-0  23201-3 0  9990
2 00047 066.6661 211.9229 0236471 258.3087 099.1397 14.41556916860224
Epoch (UTC): 29 March 2015 17:37:15
Eccentricity: 0.0236471
inclination: 66.6661°
perigee height: 585 km
apogee height: 922 km
right ascension of ascending node: 211.9229°
argument of perigee: 258.3087°
revolutions per day: 14.41556916
mean anomaly at epoch: 99.1397°
orbit number at epoch: 86022

The dashed part of the orbit path shows where the satellite is in the earth's shadow,  

DLR